Pampa, TX

12:38 PM CDT on May 25, 2018 (GMT -0500)
Perry Lefors

Weather History for KPPA - July, 2013

Change the Weather History Date:

Sunday, July 28, 2013

  Actual Average Record
Temperature  
Mean Temperature 76 °F -  
Max Temperature 88 °F 92 °F 101 °F (1986)
Min Temperature 63 °F 66 °F 59 °F (1978)
Cooling Degree Days 10    
Growing Degree Days 26 (Base 50)    
Moisture  
Dew Point 53 °F    
Average Humidity 46    
Maximum Humidity 68    
Minimum Humidity 28    
Precipitation  
Precipitation 0.00 in - - ()
Sea Level Pressure  
Sea Level Pressure 29.99 in    
Wind  
Wind Speed 17 mph (South)    
Max Wind Speed 23 mph    
Max Gust Speed 32 mph    
Visibility 10 miles    
Events      
Averages and records for this station are not official NWS values.
T = Trace of Precipitation, MM = Missing Value Source: NWS Daily Summary

Daily Weather History Graph

Daily Weather History Graph

Search for Another Location

Airport or City:

Astronomy

Jul. 28, 2013 Rise Set
Actual Time 6:49 AM CDT 8:51 PM CDT
Civil Twilight 6:20 AM CDT 9:19 PM CDT
Nautical Twilight 5:46 AM CDT 9:53 PM CDT
Astronomical Twilight 5:09 AM CDT 10:30 PM CDT
Moon No Moon Rise 1:17 PM CDT (7/28)
Length of Visible Light 14h 58m
Length of Day
14h 01m
Waning Gibbous, 60% of the Moon is Illuminated
Jul 28
Waning Gibbous
Jul 29
Last Quarter
Aug 6
New
Aug 14
First Quarter
Aug 20
Full

Hourly Weather History & Observations

Time (CDT) Temp. Heat Index Dew Point Humidity Pressure Visibility Wind Dir Wind Speed Gust Speed Precip Events Conditions
12:15 AM 70.9 °F - 53.6 °F 54% 30.03 in 10.0 mi South 15.0 mph - N/A   Clear
12:35 AM 70.3 °F - 53.2 °F 55% 30.03 in 10.0 mi South 16.1 mph - N/A   Clear
12:55 AM 69.8 °F - 52.2 °F 53% 30.03 in 10.0 mi South 18.4 mph - N/A   Clear
1:15 AM 69.4 °F - 52.2 °F 54% 30.02 in 10.0 mi South 18.4 mph - N/A   Clear
1:35 AM 68.4 °F - 52.7 °F 57% 30.02 in 10.0 mi South 17.3 mph - N/A   Clear
1:55 AM 68.0 °F - 52.9 °F 58% 30.01 in 10.0 mi South 18.4 mph - N/A   Clear
2:15 AM 68.9 °F - 52.0 °F 55% 30.02 in 10.0 mi South 17.3 mph - N/A   Clear
2:35 AM 68.7 °F - 51.6 °F 54% 30.01 in 10.0 mi South 19.6 mph 24.2 mph N/A   Clear
2:55 AM 68.4 °F - 51.8 °F 55% 30.01 in 10.0 mi South 18.4 mph 24.2 mph N/A   Clear
3:15 AM 68.5 °F - 51.4 °F 54% 30.01 in 10.0 mi South 16.1 mph - N/A   Clear
3:35 AM 67.8 °F - 51.6 °F 56% 30.01 in 10.0 mi South 17.3 mph - N/A   Clear
3:55 AM 67.3 °F - 51.8 °F 58% 30.01 in 10.0 mi South 12.7 mph 21.9 mph N/A   Clear
4:15 AM 66.4 °F - 52.0 °F 60% 30.01 in 10.0 mi South 13.8 mph - N/A   Scattered Clouds
4:35 AM 66.0 °F - 52.0 °F 60% 30.01 in 10.0 mi South 15.0 mph - N/A   Scattered Clouds
4:55 AM 65.7 °F - 52.0 °F 61% 30.01 in 10.0 mi South 13.8 mph - N/A   Scattered Clouds
5:15 AM 65.7 °F - 52.0 °F 61% 30.01 in 10.0 mi South 13.8 mph - N/A   Scattered Clouds
5:35 AM 64.9 °F - 52.3 °F 64% 30.01 in 10.0 mi South 12.7 mph - N/A   Scattered Clouds
5:55 AM 64.4 °F - 52.5 °F 65% 30.01 in 10.0 mi South 10.4 mph - N/A   Clear
6:15 AM 64.0 °F - 52.7 °F 67% 30.02 in 10.0 mi SSW 4.6 mph - N/A   Clear
6:35 AM 64.0 °F - 52.7 °F 67% 30.02 in 10.0 mi South 6.9 mph - N/A   Scattered Clouds
6:55 AM 63.7 °F - 52.9 °F 68% 30.01 in 10.0 mi South 10.4 mph - N/A   Clear
7:15 AM 63.5 °F - 52.9 °F 68% 30.01 in 10.0 mi South 9.2 mph - N/A   Clear
7:35 AM 64.0 °F - 52.9 °F 67% 30.02 in 10.0 mi South 10.4 mph - N/A   Clear
7:55 AM 64.9 °F - 53.1 °F 65% 30.02 in 10.0 mi South 10.4 mph - N/A   Clear
8:15 AM 68.4 °F - 52.9 °F 58% 30.01 in 10.0 mi South 12.7 mph - N/A   Clear
8:35 AM 68.4 °F - 53.6 °F 59% 30.02 in 10.0 mi South 15.0 mph - N/A   Clear
8:55 AM 71.8 °F - 53.8 °F 53% 30.02 in 10.0 mi South 16.1 mph 20.7 mph N/A   Clear
9:15 AM 74.3 °F - 53.6 °F 48% 30.02 in 10.0 mi South 17.3 mph 23.0 mph N/A   Clear
9:35 AM 75.2 °F - 53.8 °F 47% 30.02 in 10.0 mi South 19.6 mph 24.2 mph N/A   Clear
9:55 AM 76.3 °F - 53.8 °F 45% 30.02 in 10.0 mi South 20.7 mph 25.3 mph N/A   Clear
10:15 AM 77.2 °F - 53.6 °F 44% 30.01 in 10.0 mi South 19.6 mph 24.2 mph N/A   Clear
10:35 AM 78.1 °F - 53.4 °F 42% 30.01 in 10.0 mi South 21.9 mph 26.5 mph N/A   Clear
10:55 AM 79.0 °F - 54.0 °F 42% 30.01 in 10.0 mi South 18.4 mph 25.3 mph N/A   Clear
11:15 AM 80.1 °F 80.1 °F 54.3 °F 41% 30.01 in 10.0 mi South 19.6 mph 27.6 mph N/A   Clear
11:35 AM 81.7 °F 81.0 °F 54.0 °F 38% 30.01 in 10.0 mi SSW 20.7 mph 24.2 mph N/A   Clear
11:55 AM 81.9 °F 81.1 °F 54.0 °F 38% 30.01 in 10.0 mi South 21.9 mph 27.6 mph N/A   Clear
12:15 PM 83.3 °F 82.2 °F 54.1 °F 37% 30.01 in 10.0 mi South 18.4 mph 25.3 mph N/A   Clear
12:35 PM 83.7 °F 82.4 °F 53.8 °F 36% 30.01 in 10.0 mi South 18.4 mph 27.6 mph N/A   Clear
12:55 PM 84.7 °F 83.1 °F 53.8 °F 34% 30.01 in 10.0 mi South 17.3 mph 24.2 mph N/A   Clear
1:15 PM 85.1 °F - 52.9 °F 33% 30.01 in 10.0 mi South 18.4 mph 27.6 mph N/A   Clear
1:35 PM 85.1 °F - 52.7 °F 33% 30.00 in 10.0 mi South 20.7 mph 27.6 mph N/A   Clear
1:55 PM 86.0 °F - 52.9 °F 32% 29.99 in 10.0 mi South 20.7 mph 31.1 mph N/A   Clear
2:15 PM 86.4 °F 84.4 °F 53.1 °F 32% 29.99 in 10.0 mi South 21.9 mph 27.6 mph N/A   Clear
2:35 PM 86.4 °F 84.4 °F 53.1 °F 32% 29.98 in 10.0 mi South 19.6 mph 28.8 mph N/A   Clear
2:55 PM 86.9 °F 84.9 °F 53.4 °F 32% 29.98 in 10.0 mi South 16.1 mph 24.2 mph N/A   Clear
3:15 PM 87.1 °F 85.1 °F 53.6 °F 32% 29.97 in 10.0 mi South 18.4 mph 26.5 mph N/A   Clear
3:35 PM 87.8 °F 85.5 °F 53.1 °F 30% 29.96 in 10.0 mi South 21.9 mph 27.6 mph N/A   Clear
3:55 PM 88.2 °F - 52.9 °F 30% 29.94 in 10.0 mi South 21.9 mph 25.3 mph N/A   Clear
4:15 PM 87.8 °F - 52.2 °F 29% 29.94 in 10.0 mi SSE 19.6 mph 28.8 mph N/A   Clear
4:35 PM 87.6 °F - 50.9 °F 28% 29.92 in 10.0 mi SSE 23.0 mph 26.5 mph N/A   Clear
4:55 PM 88.0 °F - 50.5 °F 28% 29.92 in 10.0 mi SSE 16.1 mph 26.5 mph N/A   Clear
5:15 PM 87.3 °F - 51.1 °F 29% 29.92 in 10.0 mi South 21.9 mph 26.5 mph N/A   Clear
5:35 PM 87.1 °F - 50.7 °F 29% 29.92 in 10.0 mi South 21.9 mph 32.2 mph N/A   Clear
5:55 PM 86.9 °F - 50.7 °F 29% 29.92 in 10.0 mi SSE 23.0 mph 27.6 mph N/A   Clear
6:15 PM 84.4 °F - 50.0 °F 30% 29.92 in 10.0 mi South 21.9 mph 26.5 mph N/A   Clear
6:35 PM 83.5 °F - 50.0 °F 31% 29.93 in 10.0 mi South 18.4 mph 25.3 mph N/A   Clear
6:55 PM 83.3 °F - 50.5 °F 32% 29.93 in 10.0 mi South 16.1 mph 24.2 mph N/A   Clear
7:15 PM 82.6 °F - 50.5 °F 33% 29.93 in 10.0 mi SSE 19.6 mph 24.2 mph N/A   Clear
7:35 PM 81.9 °F - 50.4 °F 33% 29.94 in 10.0 mi SSE 15.0 mph 21.9 mph N/A   Clear
7:55 PM 81.3 °F - 50.0 °F 33% 29.95 in 10.0 mi SSE 15.0 mph 20.7 mph N/A   Clear
8:15 PM 80.2 °F - 49.1 °F 34% 29.96 in 10.0 mi SSE 11.5 mph - N/A   Clear
8:35 PM 79.3 °F - 48.4 °F 34% 29.96 in 10.0 mi SSE 12.7 mph - N/A   Clear
8:55 PM 78.3 °F - 48.7 °F 35% 29.97 in 10.0 mi SE 11.5 mph - N/A   Clear
9:15 PM 76.3 °F - 52.9 °F 44% 29.96 in 10.0 mi SE 16.1 mph - N/A   Clear
9:35 PM 75.6 °F - 54.3 °F 48% 29.96 in 10.0 mi SE 17.3 mph - N/A   Clear
9:55 PM 75.2 °F - 54.9 °F 49% 29.97 in 10.0 mi SE 18.4 mph 25.3 mph N/A   Clear
10:15 PM 74.7 °F - 55.4 °F 51% 29.97 in 10.0 mi SE 18.4 mph 24.2 mph N/A   Clear
10:35 PM 74.1 °F - 55.4 °F 52% 29.99 in 10.0 mi SE 18.4 mph - N/A   Clear
10:55 PM 73.6 °F - 55.8 °F 54% 29.99 in 10.0 mi SSE 16.1 mph 21.9 mph N/A   Clear
11:15 PM 73.4 °F - 55.9 °F 54% 29.99 in 10.0 mi SSE 17.3 mph 24.2 mph N/A   Clear
11:35 PM 73.0 °F - 55.8 °F 55% 29.99 in 10.0 mi SSE 17.3 mph 24.2 mph N/A   Clear
11:55 PM 72.9 °F - 55.6 °F 55% 29.99 in 10.0 mi SSE 19.6 mph 24.2 mph N/A   Clear